Time,TemperatureF,DewpointF,PressureIn,WindDirection,WindDirectionDegrees,WindSpeedMPH,WindSpeedGustMPH,Humidity,HourlyPrecipIn,Conditions,Clouds,dailyrainin,SoftwareType,DateUTC
2013-08-02 00:04:00,63.5,57.0,29.94,West,280,1.0,-999.0,80,-99.99,,,0.00,weatherlink.com 1.10,2013-08-02 04:04:00,
2013-08-02 00:19:00,63.0,57.0,29.94,West,280,0.0,-999.0,81,-99.99,,,0.00,weatherlink.com 1.10,2013-08-02 04:19:00,
2013-08-02 00:34:00,63.7,57.0,29.94,West,280,0.0,-999.0,79,-99.99,,,0.00,weatherlink.com 1.10,2013-08-02 04:34:00,
2013-08-02 00:49:00,62.4,57.0,29.94,West,280,0.0,-999.0,82,-99.99,,,0.00,weatherlink.com 1.10,2013-08-02 04:49:00,
2013-08-02 01:04:00,61.4,57.0,29.95,West,280,0.0,-999.0,84,-99.99,,,0.00,weatherlink.com 1.10,2013-08-02 05:04:00,
2013-08-02 01:19:00,61.1,57.0,29.94,West,280,0.0,-999.0,85,-99.99,,,0.00,weatherlink.com 1.10,2013-08-02 05:19:00,
2013-08-02 01:34:00,60.2,56.0,29.94,West,280,1.0,-999.0,86,-99.99,,,0.00,weatherlink.com 1.10,2013-08-02 05:34:00,
2013-08-02 01:49:00,58.7,56.0,29.94,West,280,0.0,-999.0,90,-99.99,,,0.00,weatherlink.com 1.10,2013-08-02 05:49:00,
2013-08-02 02:04:00,58.4,56.0,29.93,West,280,0.0,-999.0,92,-99.99,,,0.00,weatherlink.com 1.10,2013-08-02 06:04:00,
2013-08-02 02:19:00,58.5,57.0,29.93,West,280,0.0,-999.0,93,-99.99,,,0.00,weatherlink.com 1.10,2013-08-02 06:19:00,
2013-08-02 02:34:00,58.0,56.0,29.93,West,280,0.0,-999.0,93,-99.99,,,0.00,weatherlink.com 1.10,2013-08-02 06:34:00,
2013-08-02 02:49:00,57.8,56.0,29.93,West,280,0.0,-999.0,94,-99.99,,,0.00,weatherlink.com 1.10,2013-08-02 06:49:00,
2013-08-02 03:04:00,57.8,56.0,29.93,West,280,0.0,-999.0,94,-99.99,,,0.00,weatherlink.com 1.10,2013-08-02 07:04:00,
2013-08-02 03:19:00,57.5,56.0,29.93,West,280,0.0,-999.0,94,-99.99,,,0.00,weatherlink.com 1.10,2013-08-02 07:19:00,
2013-08-02 03:35:00,57.2,56.0,29.92,West,280,0.0,-999.0,94,-99.99,,,0.00,weatherlink.com 1.10,2013-08-02 07:35:00,
2013-08-02 03:50:00,56.9,55.0,29.92,West,280,0.0,-999.0,94,-99.99,,,0.00,weatherlink.com 1.10,2013-08-02 07:50:00,
2013-08-02 04:05:00,56.7,55.0,29.93,West,280,0.0,-999.0,95,-99.99,,,0.00,weatherlink.com 1.10,2013-08-02 08:05:00,
2013-08-02 04:20:00,56.9,56.0,29.93,West,280,0.0,-999.0,95,-99.99,,,0.00,weatherlink.com 1.10,2013-08-02 08:20:00,
2013-08-02 04:35:00,57.2,56.0,29.92,West,280,0.0,-999.0,94,-99.99,,,0.00,weatherlink.com 1.10,2013-08-02 08:35:00,
2013-08-02 04:50:00,57.5,56.0,29.92,West,280,0.0,-999.0,94,-99.99,,,0.00,weatherlink.com 1.10,2013-08-02 08:50:00,
2013-08-02 05:05:00,58.5,57.0,29.92,West,280,0.0,-999.0,94,-99.99,,,0.00,weatherlink.com 1.10,2013-08-02 09:05:00,
2013-08-02 05:20:00,59.1,57.0,29.92,West,280,0.0,-999.0,94,-99.99,,,0.00,weatherlink.com 1.10,2013-08-02 09:20:00,
2013-08-02 05:35:00,59.5,58.0,29.92,West,280,0.0,-999.0,94,-99.99,,,0.00,weatherlink.com 1.10,2013-08-02 09:35:00,
2013-08-02 05:50:00,60.3,58.0,29.91,West,280,0.0,-999.0,93,-99.99,,,0.00,weatherlink.com 1.10,2013-08-02 09:50:00,
2013-08-02 06:05:00,60.4,58.0,29.91,West,280,0.0,-999.0,93,-99.99,,,0.00,weatherlink.com 1.10,2013-08-02 10:05:00,
2013-08-02 06:20:00,60.5,58.0,29.91,West,280,0.0,-999.0,92,-99.99,,,0.00,weatherlink.com 1.10,2013-08-02 10:20:00,
2013-08-02 06:35:00,60.2,58.0,29.91,West,280,0.0,-999.0,92,-99.99,,,0.00,weatherlink.com 1.10,2013-08-02 10:35:00,
2013-08-02 06:50:00,60.3,58.0,29.91,West,280,1.0,-999.0,92,-99.99,,,0.00,weatherlink.com 1.10,2013-08-02 10:50:00,
2013-08-02 07:05:00,60.3,58.0,29.91,West,280,0.0,-999.0,91,-99.99,,,0.00,weatherlink.com 1.10,2013-08-02 11:05:00,
2013-08-02 07:20:00,60.4,58.0,29.91,West,280,0.0,-999.0,92,-99.99,,,0.00,weatherlink.com 1.10,2013-08-02 11:20:00,
2013-08-02 07:35:00,60.6,59.0,29.91,West,280,0.0,-999.0,93,-99.99,,,0.00,weatherlink.com 1.10,2013-08-02 11:35:00,
2013-08-02 07:50:00,61.1,59.0,29.91,West,280,0.0,-999.0,92,-99.99,,,0.00,weatherlink.com 1.10,2013-08-02 11:50:00,
2013-08-02 08:05:00,61.8,59.0,29.91,West,280,0.0,-999.0,91,-99.99,,,0.00,weatherlink.com 1.10,2013-08-02 12:05:00,
2013-08-02 08:20:00,62.6,59.0,29.91,West,280,0.0,-999.0,89,-99.99,,,0.00,weatherlink.com 1.10,2013-08-02 12:20:00,
2013-08-02 08:35:00,63.4,60.0,29.91,WSW,250,2.0,-999.0,89,-99.99,,,0.00,weatherlink.com 1.10,2013-08-02 12:35:00,
2013-08-02 08:50:00,64.5,61.0,29.90,WSW,249,0.0,-999.0,88,-99.99,,,0.00,weatherlink.com 1.10,2013-08-02 12:50:00,
2013-08-02 09:05:00,65.5,61.0,29.90,South,173,4.0,-999.0,86,-99.99,,,0.00,weatherlink.com 1.10,2013-08-02 13:05:00,
2013-08-02 09:20:00,66.7,61.0,29.90,SSW,192,3.0,-999.0,83,-99.99,,,0.00,weatherlink.com 1.10,2013-08-02 13:20:00,
2013-08-02 09:35:00,68.3,62.0,29.90,South,182,7.0,-999.0,81,-99.99,,,0.00,weatherlink.com 1.10,2013-08-02 13:35:00,
2013-08-02 09:50:00,69.8,62.0,29.91,SSW,205,5.0,-999.0,77,-99.99,,,0.00,weatherlink.com 1.10,2013-08-02 13:50:00,
2013-08-02 10:05:00,70.5,63.0,29.91,SSW,204,4.0,-999.0,76,-99.99,,,0.00,weatherlink.com 1.10,2013-08-02 14:05:00,
2013-08-02 10:20:00,71.9,64.0,29.92,SW,224,8.0,-999.0,75,-99.99,,,0.00,weatherlink.com 1.10,2013-08-02 14:20:00,
2013-08-02 10:35:00,72.9,64.0,29.92,SSW,195,9.0,-999.0,73,-99.99,,,0.00,weatherlink.com 1.10,2013-08-02 14:35:00,
2013-08-02 10:50:00,74.1,64.0,29.93,SSW,205,9.0,-999.0,70,-99.99,,,0.00,weatherlink.com 1.10,2013-08-02 14:50:00,
2013-08-02 11:05:00,74.3,64.0,29.93,SSW,213,10.0,-999.0,71,-99.99,,,0.00,weatherlink.com 1.10,2013-08-02 15:05:00,
2013-08-02 11:21:00,74.7,65.0,29.93,SSW,197,12.0,-999.0,72,-99.99,,,0.00,weatherlink.com 1.10,2013-08-02 15:21:00,
2013-08-02 22:50:00,71.1,67.0,29.88,SSW,213,7.0,-999.0,86,-99.99,,,0.00,weatherlink.com 1.10,2013-08-03 02:50:00,
2013-08-02 23:06:00,71.5,67.0,29.88,SSW,212,6.0,-999.0,85,-99.99,,,0.00,weatherlink.com 1.10,2013-08-03 03:06:00,
2013-08-02 23:21:00,71.7,67.0,29.88,SW,227,7.0,-999.0,85,-99.99,,,0.00,weatherlink.com 1.10,2013-08-03 03:21:00,
2013-08-02 23:36:00,72.0,67.0,29.88,SSW,213,8.0,-999.0,84,-99.99,,,0.00,weatherlink.com 1.10,2013-08-03 03:36:00,
2013-08-02 23:51:00,72.3,68.0,29.89,SW,225,10.0,-999.0,85,-99.99,,,0.00,weatherlink.com 1.10,2013-08-03 03:51:00,